Hourly Data Report for September 02, 2017

All times are specified in Local Standard Time (LST). Add 1 hour to adjust for Daylight Saving Time where and when it is observed.

PENTICTON A
BRITISH COLUMBIA

49°27'45.000" N
119°36'08.000" W
344.40 m
1126146
71889
YYF

Download Data

Hourly Data (September 2017)
Hourly Data Report for September 2, 2017
Temp Definition
°C
Dew Point Temp Definition
°C
Rel Hum Definition
%
Wind Dir Definition
10's deg

Wind Spd Definition
km/h
Visibility Definition
km
Stn Press Definition
kPa
Hmdx Definition


Wind Chill Definition


Weather Definition


TIME
00:00 Legend Double Dagger 15.5 9.0 65 8 4 24.1 97.51     LegendNANA
01:00 Legend Double Dagger 16.7 8.1 56 23 3 24.1 97.52     Clear
02:00 Legend Double Dagger 15.8 8.6 62   0 24.1 97.54     LegendNANA
03:00 Legend Double Dagger 15.1 8.2 63 36 2 24.1 97.57     LegendNANA
04:00 Legend Double Dagger 15.2 10.2 72 10 5 24.1 97.56     Clear
05:00 Legend Double Dagger 14.9 9.4 70 34 4 24.1 97.55     LegendNANA
06:00 Legend Double Dagger 12.8 8.7 76 6 4 24.1 97.56     LegendNANA
07:00 Legend Double Dagger 19.4 10.8 57 4 4 24.1 97.61     Clear
08:00 Legend Double Dagger 21.4 11.6 53 17 11 24.1 97.56     LegendNANA
09:00 Legend Double Dagger 23.4 11.9 48 21 8 24.1 97.53 26   LegendNANA
10:00 Legend Double Dagger 25.7 10.4 38 19 10 24.1 97.46 27   Clear
11:00 Legend Double Dagger 27.9 10.6 33 16 17 24.1 97.35 29   LegendNANA
12:00 Legend Double Dagger 29.8 10.2 29 17 25 12.9 97.25 31   LegendNANA
13:00 Legend Double Dagger 31.4 9.8 26 17 26 24.1 97.17 33   Clear
14:00 Legend Double Dagger 32.6 11.1 26 16 24 19.3 97.07 34   LegendNANA
15:00 Legend Double Dagger 32.5 11.9 28 16 22 19.3 97.02 35   LegendNANA
16:00 Legend Double Dagger 32.1 11.3 27 16 20 24.1 97.00 34   Mainly Clear
17:00 Legend Double Dagger 29.6 13.3 36 18 17 24.1 97.00 33   LegendNANA
18:00 Legend Double Dagger 29.1 11.4 33 23 8 24.1 97.02 31   LegendNANA
19:00 Legend Double Dagger 26.8 11.2 37 2 9 24.1 97.11 29   Mainly Clear
20:00 Legend Double Dagger 26.6 11.3 38 5 3 24.1 97.19 29   LegendNANA
21:00 Legend Double Dagger 30.2 8.9 26 34 11 24.1 97.27 31   LegendNANA
22:00 Legend Double Dagger 25.4 9.6 36 31 3 24.1 97.31 26   Mainly Clear
23:00 Legend Double Dagger 19.4 8.9 50 33 10 24.1 97.33     LegendNANA

Notes on Data Quality.

Legend

  • E = Estimated
  • M = Missing
  • NA = Not Available
  • ‡ = Partner data that is not subject to review by the National Climate Archives
Date modified: